Weather History for Salt Lake City, UT

Change the Weather History Date:

Saturday, May 4, 2013

  Actual Average Record
Temperature  
Mean Temperature 58 °F 56 °F  
Max Temperature 74 °F 68 °F 88 °F (1947)
Min Temperature 42 °F 44 °F 31 °F (1964)
Degree Days  
Heating Degree Days 7 10  
Month to date heating degree days 53 40  
Since 1 July heating degree days 5371 5396  
Cooling Degree Days 0 1  
Month to date cooling degree days 0 3  
Year to date cooling degree days 0 7  
Growing Degree Days 8 (Base 50)    
Moisture  
Dew Point 30 °F    
Average Humidity 32    
Maximum Humidity 49    
Minimum Humidity 15    
Precipitation  
Precipitation 0.00 in 0.06 in 0.92 in (1993)
Month to date precipitation T 0.28  
Year to date precipitation 4.86 6.56  
Snow  
Snow 0.00 in 0.00 in 4.00 in (1975)
Month to date snowfall T 0.1  
Since 1 July snowfall 69.9 56.0  
Snow Depth 0.00 in    
Sea Level Pressure  
Sea Level Pressure 29.80 in    
Wind  
Wind Speed 7 mph (WSW)    
Max Wind Speed 16 mph    
Max Gust Speed 20 mph    
Visibility 10 miles    
Events      
T = Trace of Precipitation, MM = Missing Value Source: NWS Daily Summary

Daily Weather History Graph

Daily Weather History Graph

Search for Another Location

Airport:

Trip Planner

Search our weather history database for the weather conditions in past years. The results will help you decide how hot, cold, wet, or windy it might be!

Date:

Astronomy

May. 04, 2013 Rise Set
Actual Time 6:22 AM MDT 8:27 PM MDT
Civil Twilight 5:52 AM MDT 8:57 PM MDT
Nautical Twilight 5:15 AM MDT 9:34 PM MDT
Astronomical Twilight 4:35 AM MDT 10:15 PM MDT
Moon 3:24 AM MDT (5/4) 3:27 PM MDT (5/4)
Length of Visible Light 15h 05m
Length of Day
14h 05m
Waning Crescent, 26% of the Moon is Illuminated
May 4
Waning Crescent
May 9
New
May 17
First Quarter
May 24
Full
May 31
Last Quarter

Hourly Weather History & Observations

Time (MDT) Temp. Windchill Dew Point Humidity Pressure Visibility Wind Dir Wind Speed Gust Speed Precip Events Conditions
12:53 AM 53.1 °F - 26.1 °F 35% 29.88 in 10.0 mi SE 3.5 mph - N/A   Partly Cloudy
1:53 AM 51.1 °F - 23.0 °F 33% 29.86 in 10.0 mi SE 3.5 mph - N/A   Partly Cloudy
2:53 AM 50.0 °F - 23.0 °F 35% 29.84 in 10.0 mi South 4.6 mph - N/A   Partly Cloudy
3:53 AM 46.9 °F - 21.0 °F 36% 29.84 in 10.0 mi South 5.8 mph - N/A   Partly Cloudy
4:53 AM 46.0 °F 43.1 °F 26.1 °F 46% 29.83 in 10.0 mi South 5.8 mph - N/A   Partly Cloudy
5:53 AM 43.0 °F 41.3 °F 26.1 °F 51% 29.83 in 10.0 mi NNW 3.5 mph - N/A   Partly Cloudy
6:53 AM 45.0 °F - 26.1 °F 48% 29.84 in 10.0 mi Calm Calm - N/A   Scattered Clouds
7:53 AM 51.1 °F - 27.0 °F 39% 29.85 in 10.0 mi SSW 4.6 mph - N/A   Scattered Clouds
8:53 AM 59.0 °F - 23.0 °F 25% 29.84 in 10.0 mi West 4.6 mph - N/A   Scattered Clouds
9:53 AM 62.1 °F - 24.1 °F 23% 29.83 in 10.0 mi Variable 4.6 mph - N/A   Scattered Clouds
10:53 AM 64.9 °F - 24.1 °F 21% 29.83 in 10.0 mi Variable 3.5 mph - N/A   Scattered Clouds
11:53 AM 68.0 °F - 28.0 °F 22% 29.81 in 10.0 mi NW 6.9 mph - N/A   Scattered Clouds
12:53 PM 70.0 °F - 26.1 °F 19% 29.78 in 10.0 mi NW 8.1 mph - N/A   Scattered Clouds
1:53 PM 72.0 °F - 21.9 °F 15% 29.75 in 10.0 mi NNW 9.2 mph - N/A   Mostly Cloudy
2:53 PM 72.0 °F - 24.1 °F 17% 29.75 in 10.0 mi Variable 6.9 mph - N/A   Mostly Cloudy
3:53 PM 68.0 °F - 36.0 °F 31% 29.76 in 10.0 mi West 13.8 mph - N/A   Mostly Cloudy
4:53 PM 66.9 °F - 37.0 °F 33% 29.76 in 10.0 mi West 12.7 mph - N/A   Overcast
5:53 PM 66.0 °F - 39.0 °F 37% 29.78 in 10.0 mi West 9.2 mph - N/A   Mostly Cloudy
6:53 PM 66.9 °F - 33.1 °F 28% 29.77 in 10.0 mi NW 6.9 mph - N/A   Mostly Cloudy
7:53 PM 63.0 °F - 37.9 °F 40% 29.76 in 10.0 mi West 4.6 mph - N/A   Mostly Cloudy
8:53 PM 55.9 °F - 39.9 °F 55% 29.77 in 10.0 mi Calm Calm - N/A   Mostly Cloudy
9:53 PM 57.0 °F - 39.0 °F 51% 29.77 in 10.0 mi WSW 4.6 mph - N/A   Mostly Cloudy
10:53 PM 55.9 °F - 37.9 °F 51% 29.75 in 10.0 mi West 4.6 mph - N/A   Mostly Cloudy
11:53 PM 53.1 °F - 36.0 °F 52% 29.77 in 10.0 mi WSW 9.2 mph - N/A   Mostly Cloudy